Regional Weather Roundup
Issued by NWS Sioux Falls, SD

Home | Current Version | Previous Version | Text Only | Print | Product List | Glossary On
Versions: 1 2 3 4 5 6 7 8 9 10 11 12 13 14 15 16 17 18 19 20 21 22 23 24 25 26 27 28 29 30 31 32 33 34 35 36 37 38 39 40 41 42 43 44 45 46 47 48 49 50
000
ASUS43 KFSD 021402
RWRFSD

WEATHER ROUNDUP FOR SE SOUTH DAKOTA/SW MINNESOTA/NW IOWA
NATIONAL WEATHER SERVICE SIOUX FALLS SD
900 AM CDT THU JUL 02 2015

NOTE: "FAIR" INDICATES FEW OR NO CLOUDS BELOW 12,000 FEET WITH NO
SIGNIFICANT WEATHER AND OR OBSTRUCTIONS TO VISIBILITY.


SDZ038>040-050-052>070-021500-
SOUTHEAST SOUTH DAKOTA

CITY           SKY/WX    TMP DP  RH WIND       PRES   REMARKS
BROOKINGS      CLOUDY    59  52  77 E9        30.02R
CHAMBERLAIN    NOT AVBL
HURON          CLOUDY    61  56  83 E5        29.98R
MADISON        FAIR      59  55  88 SE9       29.99S
MITCHELL       LGT RAIN  61  59  93 E10       29.97R
SIOUX FALLS    CLOUDY    63  54  72 SE9       29.98F
WINNER         LGT RAIN  65  61  87 NE10      29.98R
YANKTON        CLOUDY    59  55  88 E9        29.95F
$$

MNZ071-072-080-081-089-090-097-098-021500-
SOUTHWEST MINNESOTA

CITY           SKY/WX    TMP DP  RH WIND       PRES   REMARKS
FAIRMONT       PTSUNNY   61  52  72 SE6       30.03S
JACKSON        CLOUDY    61  54  77 E6        30.04R
MARSHALL       PTSUNNY   61  52  72 SE7       30.01F
MONTEVIDEO     MOSUNNY   64  55  72 S6        30.04S
PIPESTONE      CLOUDY    59  54  82 SE5       30.01F
REDWOOD FALLS  PTSUNNY   63  54  72 SE6       30.04R
TRACY          CLOUDY    61  55  78 SE5       30.03F
WINDOM         CLOUDY    61  52  72 CALM      30.04S
WORTHINGTON    CLOUDY    59  50  72 SE6       30.03S
$$

IAZ001>003-012>014-020>022-031-032-NEZ013-014-SDZ071-021500-
NORTHWEST IOWA

CITY           SKY/WX    TMP DP  RH WIND       PRES   REMARKS
ESTHERVILLE    CLOUDY    59  53  80 SE7       30.02F
SIOUX CITY     CLOUDY    62  56  80 SE8       29.97F
SPENCER        CLOUDY    61  52  72 E8        30.01F
$$

ABBREVIATIONS USED IN REMARKS
   TC - TEMPERATURE IN CELSIUS
  WCI - WIND CHILL INDEX
   HX - HEAT INDEX
  VSB - VISIBILITY



USA.gov is the U.S. government's official web portal to all federal, state and local government web resources and services.